Miscellaneous Local Product
Issued by NWS Hastings, NE

Home | Current Version | Previous Version | Text Only | Print | Product List | Glossary Off
Versions: 1 2 3 4 5 6 7 8 9 10 11 12 13 14 15 16 17 18 19 20 21 22 23 24 25 26 27 28 29 30 31 32 33 34 35 36 37 38 39 40 41 42 43 44 45 46 47 48 49 50

000
AXUS43 KGID 170302
MISGRI

GID CWA HOURLY WEATHER ROUNDUP
NATIONAL WEATHER SERVICE HASTINGS NE
900 PM CST TUE DEC 16 2014

NOTE: "FAIR" INDICATES FEW OR NO CLOUDS BELOW 12,000 FEET WITH NO
SIGNIFICANT WEATHER AND/OR OBSTRUCTIONS TO VISIBILITY.

...SOUTH CENTRAL NEBRASKA...

CITY           SKY/WX    TMP DP  RH WIND       PRES   REMARKS
GRAND ISLAND   CLOUDY    21  16  81 N6        30.34R WCI  13
HASTINGS       CLOUDY    22  17  81 N5        30.32R WCI  16
KEARNEY        CLOUDY    21  16  79 CALM      30.30S
ORD            CLOUDY    20  15  81 CALM      30.31R
YORK           CLOUDY    19  18  93 N8        30.33S WCI   9
AURORA         CLOUDY    21  18  88 N7        30.32S WCI  13
LEXINGTON      CLOUDY    22  19  86 CALM      30.29R
HOLDREGE       CLOUDY    22  18  85 CALM      30.30R
HEBRON         CLOUDY    24  18  77 NE6       30.35S WCI  17

...NEBRASKA PANHANDLE...

CITY           SKY/WX    TMP DP  RH WIND       PRES   REMARKS
CHADRON        CLOUDY    18  15  88 E5        30.14F WCI  11
ALLIANCE       CLOUDY    19  17  92 S6        30.11S WCI  11
SCOTTSBLUFF    CLOUDY    19  17  92 E12       30.09S WCI   7
SIDNEY         CLOUDY    19  17  92 S16       30.10F FOG     WCI   4

...WESTERN AND NORTH CENTRAL NEBRASKA...

CITY           SKY/WX    TMP DP  RH WIND       PRES   REMARKS
VALENTINE      CLOUDY    20  16  84 SE7       30.24F WCI  11
AINSWORTH      CLOUDY    19  16  88 CALM      30.25F
ONEILL         CLOUDY    19  18  93 CALM      30.31S
BROKEN BOW     CLOUDY    21  18  88 CALM      30.26F
IMPERIAL       MOCLDY    24  20  84 SE7       30.20S WCI  16
NORTH PLATTE   CLOUDY    19  16  88 E7        30.25S WCI  10
MCCOOK         MOCLDY    22  19  89 E8        30.26S WCI  12

...EASTERN NEBRASKA...

CITY           SKY/WX    TMP DP  RH WIND       PRES   REMARKS
NORFOLK        CLOUDY    20  16  84 NW9       30.33R WCI   9
SO SIOUX CITY  PTCLDY    17  10  74 N10       30.36R WCI   5
TEKAMAH        PTCLDY    18  13  80 NW8       30.36S WCI   8
COLUMBUS       CLOUDY    21  12  68 N9        30.36S WCI  11
ALBION         CLOUDY    19  15  84 N5        30.32S WCI  13
OMAHA EPPLEY   PTCLDY    20  14  77 NW12      30.37R WCI   8
OFFUTT AFB     CLEAR     20  14  76 NW9       30.35R WCI  10
MILLARD        PTCLDY    22  15  76 NW8       30.36R WCI  12
LINCOLN        CLOUDY    23  17  78 N7        30.37S WCI  15
NEBRASKA CITY  PTCLDY    21  15  77 N9        30.35R WCI  11
BEATRICE       CLOUDY    23  19  81 N7        30.35R WCI  15
FALLS CITY     MOCLDY    24  18  77 NW8       30.36R WCI  15

...NORTHERN KANSAS...

CITY           SKY/WX    TMP DP  RH WIND       PRES   REMARKS
GOODLAND       MOCLDY    27  22  81 SE14      30.17R WCI  16
HILL CITY      FAIR      23  20  88 E6        30.29R WCI  16
NORTON         MOCLDY    23  18  80 NE6       30.27F WCI  16
PHILLIPSBURG   CLEAR     27  21  80 N5        30.32S WCI  21
SMITH CENTER   CLEAR     21  19  93 NE6       30.33S WCI  14
BELOIT         CLEAR     25  21  86 NE3       30.34F
HAYS           CLOUDY    27  16  63 E9        30.29S WCI  17
RUSSELL        MOCLDY    25  22  88 NE6       30.29S WCI  18
CONCORDIA      CLOUDY    25  20  81 N6        30.35R WCI  18
SALINA         PTCLDY    28  20  71 NE3       30.36R
TOPEKA         CLOUDY    28  21  75 N7        30.37R WCI  21



USA.gov is the U.S. government's official web portal to all federal, state and local government web resources and services.